Delta Virtual Airport Information Service

Nassau Lynden Pindling International Airport

ICAO: MYNN Country: Bahamas
Latitude: 25.0389 Longitude: -77.4662
Latest Arrival : SWA604 (KFLL-MYNN) Latest Departure : SWA605 (MYNN-KFLL)


WX CaptureLIVE
Data provided by noaa.gov | Fetched at 04:18:32

METAR : MYNN 031000Z 04005KT 9999 SCT030 22/16 A3005

TAF : MYNN 022300Z 0300/0324 02008KT 9999 SCT035


Runway Data for MYNN
Data provided by openaviationdata.com

Runway ID Mag Var Hdg Length Elevation Surface ILS Freq ILS Id ILS Slope
9 -6 95° 8318 ft 16 ft Asphalt -- -- --
14 -6 140° 11031 ft 16 ft Asphalt 110.1 IZQA 3
27 -6 275° 8318 ft 16 ft Asphalt -- -- --
32 -6 320° 11031 ft 16 ft Asphalt -- -- --

Nassau Lynden Pindling International Airport, Bahamas
Use only for reference purposes



Not for navigational purposes.